When you browse on this site, cookies collect data to enhance your experience and personalize the content and advertising you see.
Visit our Privacy Policy to learn more. By continuing to use the site, you agree to this use of cookies and data.
  • In United Kingdom
  • List of Countries
  • For 7 days
  • Water Temperature
  • Satellite Maps
  • Weather Map
  • Weather Widgets
  • user-avatar
    Login

    Hourly Weather Minas

    Today, 26 May, Sunday

    Time Temperature Precipitation Wind Pressure Humidity
    00:00 +8°C° 0 mm 2 mps 745 mmHg 87%
    01:00 +8°C° 0 mm 2 mps 745 mmHg 88%
    02:00 +8°C° 0 mm 3 mps 744 mmHg 87%
    03:00 +9°C° 0 mm 3 mps 744 mmHg 89%
    04:00 +9°C° 0 mm 3 mps 744 mmHg 91%
    05:00 +9°C° 0 mm 3 mps 744 mmHg 92%
    06:00 +10°C° 0 mm 3 mps 744 mmHg 92%
    07:00 +11°C° 0 mm 3 mps 744 mmHg 92%
    08:00 +12°C° 0 mm 3 mps 744 mmHg 89%
    09:00 +13°C° 0 mm 3 mps 744 mmHg 88%
    10:00 +14°C° 0 mm 4 mps 744 mmHg 87%
    11:00 +17°C° 0 mm 4 mps 744 mmHg 85%
    12:00 +17°C° 0 mm 3 mps 744 mmHg 84%
    13:00 +18°C° 0 mm 3 mps 744 mmHg 83%
    14:00 +18°C° 0 mm 2 mps 743 mmHg 82%
    15:00 +17°C° 0 mm 2 mps 743 mmHg 86%
    16:00 +16°C° 0 mm 1 mps 743 mmHg 89%
    17:00 +15°C° 0 mm 1 mps 743 mmHg 93%
    18:00 +15°C° 0 mm 1 mps 743 mmHg 93%
    19:00 +15°C° 0 mm 1 mps 743 mmHg 94%
    20:00 +15°C° 0 mm 2 mps 743 mmHg 95%
    21:00 +14°C° 0 mm 2 mps 743 mmHg 95%
    22:00 +14°C° 0 mm 1 mps 743 mmHg 95%
    23:00 +13°C° 0 mm 1 mps 743 mmHg 95%

    Tomorrow, 27 May, Monday

    Time Temperature Precipitation Wind Pressure Humidity
    00:00 +13°C° 0 mm 1 mps 743 mmHg 95%
    01:00 +14°C° 0 mm 1 mps 743 mmHg 95%
    02:00 +14°C° 0 mm 1 mps 743 mmHg 95%
    03:00 +14°C° 0.1 mm 1 mps 743 mmHg 94%
    04:00 +14°C° 0.1 mm 1 mps 743 mmHg 94%
    05:00 +13°C° 0.1 mm 1 mps 743 mmHg 94%
    06:00 +14°C° 0 mm 1 mps 743 mmHg 94%
    07:00 +14°C° 0 mm 1 mps 743 mmHg 94%
    08:00 +14°C° 0 mm 1 mps 743 mmHg 93%
    09:00 +16°C° 0 mm 1 mps 744 mmHg 89%
    10:00 +17°C° 0 mm 2 mps 744 mmHg 84%
    11:00 +18°C° 0 mm 2 mps 744 mmHg 79%
    12:00 +18°C° 0.1 mm 2 mps 744 mmHg 78%
    13:00 +18°C° 0.1 mm 2 mps 744 mmHg 77%
    14:00 +19°C° 0.1 mm 2 mps 743 mmHg 76%
    15:00 +17°C° 0 mm 2 mps 743 mmHg 82%
    16:00 +16°C° 0 mm 2 mps 743 mmHg 88%
    17:00 +15°C° 0 mm 2 mps 743 mmHg 93%
    18:00 +14°C° 0 mm 2 mps 743 mmHg 95%
    19:00 +14°C° 0 mm 1 mps 743 mmHg 96%
    20:00 +13°C° 0 mm 1 mps 744 mmHg 97%
    21:00 +13°C° 0 mm 1 mps 744 mmHg 97%
    22:00 +13°C° 0 mm 1 mps 744 mmHg 97%
    23:00 +13°C° 0 mm 1 mps 744 mmHg 97%

    Day after tomorrow, 28 May, Tuesday

    Time Temperature Precipitation Wind Pressure Humidity
    00:00 +12°C° 0 mm 1 mps 744 mmHg 97%
    01:00 +12°C° 0 mm 1 mps 744 mmHg 96%
    02:00 +12°C° 0 mm 1 mps 744 mmHg 96%
    03:00 +12°C° 0 mm 1 mps 744 mmHg 96%
    04:00 +11°C° 0 mm 1 mps 744 mmHg 96%
    05:00 +11°C° 0 mm 1 mps 743 mmHg 96%
    06:00 +11°C° 0 mm 1 mps 744 mmHg 94%
    07:00 +12°C° 0 mm 1 mps 744 mmHg 93%
    08:00 +13°C° 0 mm 1 mps 745 mmHg 91%
    09:00 +14°C° 0 mm 1 mps 745 mmHg 83%
    10:00 +16°C° 0 mm 2 mps 745 mmHg 74%
    11:00 +17°C° 0 mm 2 mps 746 mmHg 66%
    12:00 +18°C° 0 mm 2 mps 745 mmHg 64%
    13:00 +18°C° 0 mm 2 mps 745 mmHg 62%
    14:00 +18°C° 0 mm 2 mps 745 mmHg 61%
    15:00 +17°C° 0 mm 2 mps 745 mmHg 68%
    16:00 +15°C° 0 mm 2 mps 745 mmHg 76%
    17:00 +13°C° 0 mm 2 mps 745 mmHg 83%
    18:00 +12°C° 0 mm 1 mps 745 mmHg 85%
    19:00 +11°C° 0 mm 1 mps 745 mmHg 87%
    20:00 +11°C° 0 mm 1 mps 746 mmHg 89%
    21:00 +10°C° 0 mm 1 mps 746 mmHg 88%
    22:00 +10°C° 0 mm 1 mps 746 mmHg 88%
    23:00 +10°C° 0 mm 1 mps 746 mmHg 87%

    29 May, Wednesday

    Time Temperature Precipitation Wind Pressure Humidity
    00:00 +10°C° 0 mm 1 mps 746 mmHg 88%
    01:00 +10°C° 0 mm 1 mps 746 mmHg 88%
    02:00 +10°C° 0 mm 1 mps 746 mmHg 89%
    03:00 +10°C° 0 mm 1 mps 746 mmHg 90%
    04:00 +10°C° 0 mm 1 mps 746 mmHg 91%
    05:00 +9°C° 0 mm 1 mps 746 mmHg 91%
    06:00 +10°C° 0 mm 1 mps 746 mmHg 90%
    07:00 +11°C° 0 mm 1 mps 746 mmHg 88%
    08:00 +12°C° 0 mm 1 mps 747 mmHg 87%
    09:00 +13°C° 0 mm 1 mps 747 mmHg 84%
    10:00 +14°C° 0 mm 2 mps 747 mmHg 81%
    11:00 +16°C° 0 mm 3 mps 747 mmHg 78%
    12:00 +16°C° 0 mm 3 mps 747 mmHg 76%
    13:00 +16°C° 0 mm 3 mps 747 mmHg 75%
    14:00 +16°C° 0 mm 3 mps 746 mmHg 73%
    15:00 +14°C° 0 mm 3 mps 746 mmHg 76%
    16:00 +12°C° 0 mm 3 mps 746 mmHg 78%
    17:00 +12°C° 0 mm 2 mps 746 mmHg 81%
    18:00 +12°C° 0 mm 2 mps 746 mmHg 81%
    19:00 +10°C° 0 mm 3 mps 747 mmHg 81%
    20:00 +10°C° 0 mm 3 mps 747 mmHg 82%
    21:00 +10°C° 0 mm 2 mps 747 mmHg 83%
    22:00 +10°C° 0 mm 2 mps 747 mmHg 84%
    23:00 +9°C° 0 mm 2 mps 747 mmHg 86%

    30 May, Thursday

    Time Temperature Precipitation Wind Pressure Humidity
    00:00 +9°C° 0.1 mm 2 mps 747 mmHg 88%
    01:00 +9°C° 0.1 mm 3 mps 747 mmHg 90%
    02:00 +9°C° 0.1 mm 3 mps 747 mmHg 92%
    03:00 +9°C° 0.5 mm 3 mps 747 mmHg 93%
    04:00 +9°C° 0.5 mm 3 mps 747 mmHg 93%
    05:00 +7°C° 0.5 mm 4 mps 747 mmHg 94%
    06:00 +7°C° 0.4 mm 4 mps 747 mmHg 93%
    07:00 +7°C° 0.4 mm 4 mps 748 mmHg 92%
    08:00 +7°C° 0.4 mm 4 mps 748 mmHg 91%
    09:00 +8°C° 0 mm 4 mps 748 mmHg 87%
    10:00 +9°C° 0 mm 5 mps 748 mmHg 83%
    11:00 +9°C° 0 mm 5 mps 748 mmHg 79%
    12:00 +9°C° 0 mm 5 mps 748 mmHg 76%
    13:00 +9°C° 0 mm 5 mps 748 mmHg 73%
    14:00 +9°C° 0 mm 5 mps 747 mmHg 70%
    15:00 +8°C° 0 mm 4 mps 748 mmHg 72%
    16:00 +7°C° 0 mm 4 mps 748 mmHg 74%
    17:00 +7°C° 0 mm 3 mps 748 mmHg 76%
    18:00 +5°C° 0 mm 3 mps 748 mmHg 77%
    19:00 +5°C° 0 mm 3 mps 749 mmHg 79%
    20:00 +6°C° 0 mm 2 mps 749 mmHg 80%
    21:00 +6°C° 0 mm 2 mps 749 mmHg 80%
    22:00 +6°C° 0 mm 2 mps 749 mmHg 80%
    23:00 +6°C° 0 mm 2 mps 749 mmHg 79%

    31 May, Friday

    Time Temperature Precipitation Wind Pressure Humidity
    00:00 +6°C° 0 mm 1 mps 749 mmHg 82%
    01:00 +6°C° 0 mm 1 mps 748 mmHg 84%
    02:00 +6°C° 0 mm 1 mps 748 mmHg 87%
    03:00 +5°C° 0 mm 1 mps 748 mmHg 88%
    04:00 +5°C° 0 mm 1 mps 748 mmHg 88%
    05:00 +5°C° 0 mm 1 mps 748 mmHg 89%
    06:00 +6°C° 0 mm 1 mps 748 mmHg 86%
    07:00 +6°C° 0 mm 0 mps 749 mmHg 83%
    08:00 +7°C° 0 mm 0 mps 749 mmHg 80%
    09:00 +9°C° 0 mm 1 mps 749 mmHg 75%
    10:00 +11°C° 0 mm 1 mps 749 mmHg 70%
    11:00 +12°C° 0 mm 2 mps 749 mmHg 65%
    12:00 +12°C° 0 mm 2 mps 749 mmHg 67%
    13:00 +12°C° 0 mm 2 mps 748 mmHg 68%
    14:00 +10°C° 0 mm 3 mps 748 mmHg 69%
    15:00 +9°C° 0 mm 2 mps 748 mmHg 74%
    16:00 +8°C° 0 mm 2 mps 748 mmHg 79%
    17:00 +7°C° 0 mm 2 mps 748 mmHg 84%
    18:00 +6°C° 0 mm 2 mps 748 mmHg 85%
    19:00 +5°C° 0 mm 2 mps 748 mmHg 86%
    20:00 +5°C° 0 mm 2 mps 748 mmHg 88%
    21:00 +4°C° 0 mm 2 mps 748 mmHg 88%
    22:00 +4°C° 0 mm 2 mps 748 mmHg 88%
    23:00 +4°C° 0 mm 2 mps 748 mmHg 88%
    Show more